User: anonymous   Login
Location: Hepcat Sky Observatory
(29.9800°N, 95.6500°W)
Time: 16:45:14
(UTC-05:00)
Language:

ALOS - Orbit

View from above orbital plane
View from above orbital plane
View from above satellite
View from above satellite

Ground track
Ground track

The orbit data is extracted from the following two-line orbital elements,

1 28931U 06002A   16243.94180456 +.00000102 +00000-0 +28951-4 0  9996
2 28931 097.8784 279.3135 0002032 114.8858 245.2557 14.62230332565046
Epoch (UTC): 30 August 2016 22:36:11
Eccentricity: 0.0002032
inclination: 97.8784°
perigee height: 684 km
apogee height: 687 km
right ascension of ascending node: 279.3135°
argument of perigee: 114.8858°
revolutions per day: 14.62230332
mean anomaly at epoch: 245.2557°
orbit number at epoch: 56504

The dashed part of the orbit path shows where the satellite is in the earth's shadow,  

DLR